Weather History for Windsor, ON

Change the Weather History Date:

Monday, November 21, 2011

  Actual Average Record
Temperature  
Mean Temperature 38 °F -  
Max Temperature 41 °F 39 °F 59 °F (2010)
Min Temperature 35 °F 25 °F 21 °F (2000)
Degree Days  
Heating Degree Days 27    
Moisture  
Dew Point 30 °F    
Average Humidity 73    
Maximum Humidity 81    
Minimum Humidity 59    
Precipitation  
Precipitation 0.00 in 0.10 in - ()
Sea Level Pressure  
Sea Level Pressure 30.34 in    
Wind  
Wind Speed 7 mph ()    
Max Wind Speed 12 mph    
Max Gust Speed -    
Visibility 15.0 miles    
Events      
Averages and records for this station are not official NWS values.
T = Trace of Precipitation, MM = Missing Value Source: Averaged Metar Reports

Daily Weather History Graph

Daily Weather History Graph

Search for Another Location

Airport:

Trip Planner

Search our weather history database for the weather conditions in past years. The results will help you decide how hot, cold, wet, or windy it might be!

Date:

Astronomy

Nov. 21, 2011 Rise Set
Actual Time 7:29 AM EST 5:05 PM EST
Civil Twilight 6:58 AM EST 5:36 PM EST
Nautical Twilight 6:24 AM EST 6:10 PM EST
Astronomical Twilight 5:51 AM EST 6:43 PM EST
Moon 3:02 AM EST (11/21) 2:30 PM EST (11/21)
Length of Visible Light 10h 37m
Length of Day
9h 36m
Waning Crescent, 18% of the Moon is Illuminated
Nov 21
Waning Crescent
Nov 25
New
Dec 2
First Quarter
Dec 10
Full
Dec 17
Last Quarter

Hourly Weather History & Observations

Time (EST) Temp. Windchill Dew Point Humidity Pressure Visibility Wind Dir Wind Speed Gust Speed Precip Events Conditions
12:00 AM 39.2 °F 32.5 °F 32.0 °F 75% 30.32 in 15.0 mi NE 10.4 mph - N/A   Mostly Cloudy
1:00 AM 38 °F - 31 °F 68% 30.32 in 15 mi NNE 9.2 mph - -   Mostly Cloudy
1:00 AM 39.2 °F 33.0 °F 32.0 °F 75% 30.32 in 15.0 mi NNE 9.2 mph - N/A   Mostly Cloudy
2:00 AM 39.2 °F 32.0 °F 32.0 °F 75% 30.31 in 15.0 mi NE 11.5 mph - N/A   Mostly Cloudy
3:00 AM 39.2 °F 34.2 °F 32.0 °F 75% 30.33 in 15.0 mi NE 6.9 mph - N/A   Overcast
4:00 AM 39.2 °F 33.6 °F 30.2 °F 70% 30.33 in 15.0 mi ENE 8.1 mph - N/A   Overcast
5:00 AM 37.4 °F 31.4 °F 30.2 °F 75% 30.33 in 15.0 mi ENE 8.1 mph - N/A   Mostly Cloudy
6:00 AM 37.4 °F 30.8 °F 30.2 °F 75% 30.35 in 15.0 mi ENE 9.2 mph - N/A   Mostly Cloudy
7:00 AM 38 °F - 29 °F 62% 30.37 in 15 mi ENE 10.4 mph - -   Mostly Cloudy
7:00 AM 37.4 °F 30.3 °F 30.2 °F 75% 30.37 in 15.0 mi ENE 10.4 mph - N/A   Mostly Cloudy
8:00 AM 35.6 °F 29.9 °F 28.4 °F 75% 30.39 in 15.0 mi ESE 6.9 mph - N/A   Mostly Cloudy
9:00 AM 35.6 °F 28.6 °F 26.6 °F 70% 30.40 in 15.0 mi East 9.2 mph - N/A   Partly Cloudy
10:00 AM 39.2 °F 33.0 °F 28.4 °F 65% 30.40 in 15.0 mi ENE 9.2 mph - N/A   Partly Cloudy
11:00 AM 39.2 °F 33.0 °F 28.4 °F 65% 30.38 in 15.0 mi NE 9.2 mph - N/A   Partly Cloudy
12:00 PM 39.2 °F 33.6 °F 30.2 °F 70% 30.36 in 15.0 mi NE 8.1 mph - N/A   Partly Cloudy
1:00 PM 40 °F - 31 °F 59% 30.35 in 15 mi NE 5.8 mph - -   Scattered Clouds
1:00 PM 41.0 °F 38.0 °F 30.2 °F 65% 30.35 in 15.0 mi NNE 4.6 mph - N/A   Partly Cloudy
2:00 PM 41.0 °F 37.1 °F 32.0 °F 70% 30.33 in 15.0 mi East 5.8 mph - N/A   Partly Cloudy
3:00 PM 41.0 °F 36.4 °F 32.0 °F 70% 30.31 in 15.0 mi ENE 6.9 mph - N/A   Partly Cloudy
4:00 PM 41.0 °F 36.4 °F 32.0 °F 70% 30.32 in 15.0 mi NE 6.9 mph - N/A   Partly Cloudy
5:00 PM 39.2 °F - 30.2 °F 70% 30.31 in 15.0 mi Calm Calm - N/A   Mostly Cloudy
6:00 PM 35.6 °F - 30.2 °F 81% 30.32 in 15.0 mi Calm Calm - N/A   Scattered Clouds
7:00 PM 36 °F - 30 °F 71% 30.32 in 15 mi Calm Calm - -   Clear
7:00 PM 35.6 °F - 30.2 °F 81% 30.32 in 15.0 mi Calm Calm - N/A   Partly Cloudy
8:00 PM 35.6 °F - 30.2 °F 81% 30.34 in 15.0 mi Calm Calm - N/A   Mostly Cloudy
9:00 PM 35.6 °F 30.7 °F 30.2 °F 81% 30.33 in 15.0 mi ENE 5.8 mph - N/A   Partly Cloudy
10:00 PM 35.6 °F 29.9 °F 30.2 °F 81% 30.32 in 15.0 mi ENE 6.9 mph - N/A   Clear
11:00 PM 35.6 °F 29.9 °F 30.2 °F 81% 30.29 in 15.0 mi ENE 6.9 mph - N/A   Clear